SL-12 R/B(2)

基本信息
目录编号:
28634
目录名称:
SL-12 R/B(2)
国际标识:
2005-010F
轨道中心:
EARTH
物体状态:
在轨
发射日期:
2005-03-29 UTC
国别:
俄罗斯(独联体) (CIS)
轨道信息
数据来源: 国际轨道数据
星历时间: 2026-07-13T23:23:23+0800
半长轴: 42167.588km
偏心率: 0.0021569
轨道倾角: 13.151°
近地点辐角: 268.172°
升交点赤经: 18.211°
平近点角: 281.683°
近地点: 35698.499km
远地点: 35880.403km
周期: 1436.243分钟
每日圈数: 1.002616
详细信息
发射场:
TTMTR
轨道高度:
MEO
数据来源:
AOE Integration Group
参考系:
TEME
时间系统:
UTC
历元类型:
SGP4
2D轨道图
3D轨道图
轨道高度分析图
轨道倾角分析图
轨道综合分析图
查看轨道综合分析图